SYL6392 ULLI-ULPB

Flight info

Callsign SYL6392
Flight time N/A
Altitude 29000
Route RELNI1B RELNI T693 DISUP T821 BOBMU BOBMU2H
Aircraft B738/M-SDE2E3FGHIRWXY/LB1

Departure

Time 2026-05-06 16:40
Airport Pulkovo Airport (ULLI)

Arrival

Time N/A
Airport Petrozavodsk Airport (ULPB)
Time Latitude Longitude Altitude Speed Heading
2026-05-06 16:40 59.82610 30.04211 6032 ft 218 kts 282°
2026-05-06 16:40 59.83127 30.01273 6431 ft 241 kts 296°
2026-05-06 16:40 59.84415 29.98899 6829 ft 268 kts 329°
2026-05-06 16:40 59.86295 29.98292 7481 ft 287 kts
2026-05-06 16:41 59.88267 29.99271 8291 ft 296 kts 13°
2026-05-06 16:41 59.90237 30.00571 9208 ft 301 kts 17°
2026-05-06 16:41 59.91983 30.02934 10012 ft 318 kts 46°
2026-05-06 16:41 59.93097 30.06774 10751 ft 327 kts 74°
2026-05-06 16:42 59.93239 30.11278 11470 ft 328 kts 105°
2026-05-06 16:42 59.92650 30.15678 12245 ft 330 kts 112°
2026-05-06 16:42 59.91904 30.20035 12967 ft 334 kts 118°
2026-05-06 16:42 59.90926 30.24288 13751 ft 338 kts 122°
2026-05-06 16:43 59.89901 30.28569 14454 ft 344 kts 121°
2026-05-06 16:43 59.88935 30.32893 15159 ft 352 kts 114°
2026-05-06 16:43 59.88542 30.37782 15852 ft 364 kts 96°
2026-05-06 16:43 59.88421 30.42935 16200 ft 383 kts 95°
2026-05-06 16:44 59.88312 30.48391 16368 ft 405 kts 95°
2026-05-06 16:44 59.88175 30.54140 16523 ft 426 kts 96°
2026-05-06 16:44 59.88003 30.60170 16676 ft 445 kts 96°
2026-05-06 16:44 59.88048 30.66442 16881 ft 463 kts 81°
2026-05-06 16:45 59.89004 30.72595 17408 ft 468 kts 61°
2026-05-06 16:45 59.90708 30.78101 18076 ft 468 kts 53°
2026-05-06 16:45 59.92546 30.83499 18608 ft 473 kts 52°
2026-05-06 16:45 59.94413 30.88925 19094 ft 477 kts 52°
2026-05-06 16:46 59.96289 30.94433 19600 ft 481 kts 53°
2026-05-06 16:46 59.98159 31.00004 20124 ft 485 kts 53°
2026-05-06 16:46 60.00027 31.05639 20631 ft 488 kts 53°
2026-05-06 16:46 60.01898 31.11331 21128 ft 492 kts 54°
2026-05-06 16:47 60.03778 31.17083 21601 ft 495 kts 54°
2026-05-06 16:47 60.05638 31.22785 22059 ft 499 kts 54°
2026-05-06 16:47 60.07539 31.28625 22513 ft 502 kts 54°
2026-05-06 16:47 60.09453 31.34512 22963 ft 506 kts 54°
2026-05-06 16:48 60.11379 31.40447 23397 ft 509 kts 53°
2026-05-06 16:48 60.13355 31.46351 23773 ft 510 kts 48°
2026-05-06 16:48 60.15854 31.51316 24111 ft 502 kts 31°
2026-05-06 16:48 60.18831 31.54747 24513 ft 490 kts 17°
2026-05-06 16:49 60.21975 31.57402 24907 ft 490 kts 15°
2026-05-06 16:49 60.25140 31.59984 25212 ft 493 kts 14°
2026-05-06 16:49 60.28343 31.62603 25524 ft 497 kts 15°
2026-05-06 16:49 60.31546 31.65270 25852 ft 500 kts 15°
2026-05-06 16:50 60.34763 31.68001 26184 ft 502 kts 15°
2026-05-06 16:50 60.37944 31.70740 26528 ft 504 kts 16°
2026-05-06 16:50 60.41170 31.73543 26955 ft 504 kts 16°
2026-05-06 16:50 60.43344 31.75440 27267 ft 503 kts 16°
2026-05-06 16:51 60.47589 31.79150 27919 ft 501 kts 16°
2026-05-06 16:51 60.50797 31.81955 28362 ft 501 kts 16°
2026-05-06 16:51 60.53996 31.84753 28794 ft 501 kts 16°
2026-05-06 16:51 60.57200 31.87558 29026 ft 503 kts 16°
2026-05-06 16:52 60.60425 31.90387 29012 ft 504 kts 16°
2026-05-06 16:52 60.66828 31.96031 29016 ft 500 kts 15°
2026-05-06 16:53 60.73381 31.99840 29007 ft 481 kts 358°
2026-05-06 16:53 60.79925 32.00409 28988 ft 469 kts 351°
2026-05-06 16:53 60.83143 32.00549 28621 ft 458 kts 352°
2026-05-06 16:54 60.86327 32.00732 27912 ft 456 kts 352°
2026-05-06 16:54 60.89506 32.00955 27027 ft 458 kts 352°
2026-05-06 16:54 60.92713 32.01237 26057 ft 465 kts 355°
2026-05-06 16:54 60.95951 32.02604 25143 ft 486 kts 11°
2026-05-06 16:55 60.99031 32.05639 24521 ft 497 kts 26°
2026-05-06 16:55 61.01727 32.10162 23996 ft 500 kts 38°
2026-05-06 16:55 61.04190 32.15182 23415 ft 496 kts 40°
2026-05-06 16:55 61.06593 32.20242 22696 ft 492 kts 41°
2026-05-06 16:56 61.08982 32.25268 22018 ft 488 kts 40°
2026-05-06 16:56 61.11364 32.30205 21388 ft 483 kts 40°
2026-05-06 16:56 61.13739 32.35064 20782 ft 477 kts 39°
2026-05-06 16:56 61.16099 32.39855 20171 ft 473 kts 39°
2026-05-06 16:57 61.18408 32.44535 19589 ft 469 kts 39°
2026-05-06 16:57 61.20723 32.49237 19260 ft 459 kts 39°
2026-05-06 16:57 61.22956 32.53794 19161 ft 443 kts 39°
2026-05-06 16:57 61.25129 32.58237 18867 ft 434 kts 39°
2026-05-06 16:58 61.27273 32.62620 18387 ft 432 kts 39°
2026-05-06 16:58 61.29432 32.66946 17810 ft 430 kts 38°
2026-05-06 16:58 61.31593 32.71223 17294 ft 427 kts 38°
2026-05-06 16:58 61.33743 32.75472 16807 ft 424 kts 39°
2026-05-06 16:59 61.35874 32.79697 16312 ft 421 kts 39°
2026-05-06 16:59 61.37989 32.83908 15836 ft 418 kts 39°
2026-05-06 16:59 61.40084 32.88094 15368 ft 416 kts 39°
2026-05-06 16:59 61.42165 32.92264 14899 ft 413 kts 39°
2026-05-06 17:00 61.44233 32.96417 14437 ft 412 kts 39°
2026-05-06 17:00 61.46290 33.00555 13999 ft 409 kts 40°
2026-05-06 17:00 61.48296 33.04756 13516 ft 408 kts 45°
2026-05-06 17:00 61.50078 33.09276 13415 ft 396 kts 50°
2026-05-06 17:01 61.51714 33.13820 13326 ft 384 kts 51°
2026-05-06 17:01 61.53278 33.18262 13235 ft 373 kts 51°
2026-05-06 17:01 61.54800 33.22563 13118 ft 362 kts 51°
2026-05-06 17:01 61.56285 33.26711 12846 ft 359 kts 50°
2026-05-06 17:02 61.57792 33.30878 12482 ft 358 kts 50°
2026-05-06 17:02 61.59300 33.35024 12169 ft 356 kts 50°
2026-05-06 17:02 61.60803 33.39150 11841 ft 354 kts 50°
2026-05-06 17:02 61.62297 33.43252 11521 ft 352 kts 50°
2026-05-06 17:03 61.63785 33.47340 11196 ft 351 kts 50°
2026-05-06 17:03 61.65262 33.51405 10896 ft 349 kts 50°
2026-05-06 17:03 61.66731 33.55455 10605 ft 347 kts 51°
2026-05-06 17:03 61.68190 33.59486 10263 ft 346 kts 51°
2026-05-06 17:04 61.69671 33.63583 9781 ft 351 kts 51°
2026-05-06 17:04 61.71124 33.67611 9586 ft 340 kts 51°
2026-05-06 17:04 61.72547 33.71563 9148 ft 338 kts 51°
2026-05-06 17:04 61.73962 33.75499 8740 ft 335 kts 51°
2026-05-06 17:05 61.74890 33.78084 8479 ft 332 kts 50°
2026-05-06 17:05 61.76466 33.81549 8040 ft 323 kts 29°
2026-05-06 17:05 61.78417 33.83695 7679 ft 311 kts 16°
2026-05-06 17:05 61.80399 33.85458 7294 ft 307 kts 14°
2026-05-06 17:06 61.82370 33.87163 6924 ft 304 kts 14°
2026-05-06 17:06 61.84318 33.88854 6554 ft 301 kts 14°
2026-05-06 17:06 61.86246 33.90549 6167 ft 298 kts 15°
2026-05-06 17:06 61.88148 33.92230 5815 ft 294 kts 15°
2026-05-06 17:07 61.90016 33.93894 5491 ft 288 kts 15°
2026-05-06 17:07 61.91843 33.95530 5270 ft 280 kts 15°
2026-05-06 17:07 61.93594 33.97108 5167 ft 266 kts 15°
2026-05-06 17:07 61.95256 33.98609 5051 ft 254 kts 15°
2026-05-06 17:08 61.96866 34.00053 4810 ft 249 kts 15°
2026-05-06 17:08 61.98455 34.01481 4479 ft 247 kts 15°
2026-05-06 17:08 62.00024 34.02895 4234 ft 243 kts 15°
2026-05-06 17:08 62.01574 34.04293 3978 ft 242 kts 16°
2026-05-06 17:09 62.03100 34.05676 3945 ft 240 kts 16°
2026-05-06 17:09 62.04637 34.07067 3945 ft 239 kts 15°
2026-05-06 17:09 62.06165 34.08475 3930 ft 240 kts 20°
2026-05-06 17:09 62.07428 34.10879 3912 ft 252 kts 56°
2026-05-06 17:10 62.07885 34.14501 3924 ft 259 kts 95°
2026-05-06 17:10 62.07392 34.18095 3926 ft 249 kts 117°
2026-05-06 17:10 62.06698 34.21401 3845 ft 239 kts 117°
2026-05-06 17:10 62.06033 34.24593 3585 ft 235 kts 117°
2026-05-06 17:11 62.05228 34.27574 3197 ft 229 kts 142°
2026-05-06 17:11 62.03874 34.28820 3110 ft 207 kts 189°
2026-05-06 17:11 62.02536 34.28085 3109 ft 197 kts 210°
2026-05-06 17:11 62.01280 34.26971 2983 ft 193 kts 210°
2026-05-06 17:12 62.00058 34.25864 2742 ft 189 kts 209°
2026-05-06 17:12 61.98855 34.24780 2494 ft 187 kts 210°
2026-05-06 17:12 61.97681 34.23722 2231 ft 182 kts 208°
2026-05-06 17:12 61.96550 34.22708 2014 ft 172 kts 209°
2026-05-06 17:13 61.95466 34.21733 1765 ft 164 kts 209°
2026-05-06 17:13 61.94453 34.20822 1580 ft 149 kts 209°
2026-05-06 17:13 61.93513 34.19991 1363 ft 148 kts 208°
2026-05-06 17:13 61.92560 34.19089 925 ft 149 kts 207°
2026-05-06 17:14 61.91625 34.18243 648 ft 142 kts 205°
2026-05-06 17:14 61.90718 34.17441 435 ft 140 kts 204°
2026-05-06 17:14 61.89810 34.16632 268 ft 145 kts 204°
2026-05-06 17:14 61.88877 34.15809 159 ft 139 kts 203°
2026-05-06 17:15 61.88078 34.15073 153 ft 109 kts 203°